Regional Weather Roundup
Issued by NWS

Home | Current Version | Previous Version | Text Only | Print | Product List | Glossary On
Versions: 1 2 3 4 5 6 7 8 9 10 11 12 13 14 15 16 17 18 19 20 21 22 23 24 25 26 27 28 29 30 31 32 33 34 35 36 37 38 39 40 41 42 43 44 45 46 47 48 49 50
000
ASUS45 KBOI 300410
RWRID

IDAHO REGIONAL WEATHER ROUNDUP
NATIONAL WEATHER SERVICE BOISE ID
1000 PM MDT SAT APR 29 2017

NOTE: "FAIR" INDICATES FEW OR NO CLOUDS BELOW 12000 FEET
WITH NO SIGNIFICANT WEATHER AND/OR OBSTRUCTIONS TO VISIBILITY

IDZ012-014-300500-
SOUTHWEST IDAHO


CITY           SKY/WX    TMP DP  RH WIND       PRES   REMARKS
BOISE          MOCLDY    53  35  50 SE5       30.15S
CALDWELL       MOCLDY    53  34  48 E5        30.15R
MOUNTAIN HOME  CLOUDY    52  34  51 NE3       30.16S
$$

IDZ016-017-300500-
SOUTHCENTRAL IDAHO


CITY           SKY/WX    TMP DP  RH WIND       PRES   REMARKS
BURLEY         PTCLDY    42  27  55 S5        30.17R
JEROME         PTCLDY    48  27  44 SW5       30.19R
TWIN FALLS     PTCLDY    40  30  67 SW5       30.20R
$$

IDZ019>023-300500-
SOUTHEAST IDAHO


CITY           SKY/WX    TMP DP  RH WIND       PRES   REMARKS
IDAHO FALLS    CLEAR     47  28  47 S12       30.18R
POCATELLO      CLOUDY    45  28  51 S12       30.19R
REXBURG        CLEAR     44  29  55 S6        30.16R
$$

IDZ006-010-011-018-031-032-300500-
CENTRAL IDAHO MOUNTAINS


CITY           SKY/WX    TMP DP  RH WIND       PRES   REMARKS
MCCALL         CLOUDY    43  26  51 CALM      30.16S
HAILEY         PTCLDY    45  23  42 S7        30.18R
STANLEY          N/A     37  21  52 SE5       30.19S WCI  33
SALMON         CLOUDY    46  28  49 S3        30.08R
CHALLIS        MOCLDY    50  15  24 W6        30.13R
$$

IDZ002-004-006-007-026-300500-
NORTHERN IDAHO


CITY           SKY/WX    TMP DP  RH WIND       PRES   REMARKS
LEWISTON       MOCLDY    59  36  42 CALM      30.09R
LOWELL           N/A     50  44  80 N3        30.12R
COEUR D`ALENE  CLOUDY    52  30  43 SW14      30.07S
MULLAN PASS    MOCLDY    36  26  67 VRB6      30.08S WCI  31
$$



USA.gov is the U.S. government's official web portal to all federal, state and local government web resources and services.